www.pogodaiklimat.ru

Погода и климат >> Архив погоды >> Россия >> Кемеровская область >> Тисуль


АРХИВ ПОГОДЫ в Тисуле

Время (UTC), дата Ветер
(напр.,м/с)
 
Видим.   Явления Облачность Т
(С)
Тd
(С)
f
(%)
Тe
(С)
Тes
(С)
Комфортность P
(гПа)
Po
(гПа)
Тmin
(С)
Tmax
(С)
R
(мм)
R24
(мм)
S
(см)
18 18.06 ЮЗ 3 20 км {ливн. осадки} 10/4 600 м
[Cb calv Ac und]
+18.9 +7.7 48 +20 +20 1002.7 978.4
21 18.06 Ю 2
{13}
20 км {ливн. осадки} 9/8 600 м
[Cb calv Ac As Ci fib]
+14.8 +10.9 77 +15 +15 1002.5 977.8
00 19.06 ЮЗ 3 20 км в посл. час ливневой дождь 9/8 600 м
[Cb calv Ac trans]
+15.9 +11.8 77 +15 +16 1004.1 979.5 +14.7 0.3
03 19.06 ЮЗ 6-11
{11}
20 км 8/5 600 м
[Cb calv Ac trans]
+18.9 +8.4 50 +19 +20 1005.6 981.1
06 19.06 З 8-11
{14}
20 км {ливн. осадки} 8/5 600 м
[Cb calv Ac trans]
+19.5 +6.2 42 +19 +20 1006.9 982.5
09 19.06 ЮЗ 4
{16}
20 км {ливн. осадки} 8/5 1000 м
[Cu med, cong Ac trans]
+19.5 +8.3 48 +20 +23 1009.3 984.9
12 19.06 ЮЗ 5
{11}
20 км {ливн. осадки} 8/3 1000 м
[Cu Sc Ac trans]
+17.0 +7.7 54 +16 +17 1012.0 987.3 +20.3 0.5
18 19.06 Ю 2 20 км ясно +9.1 +5.6 79 +7 +7 1014.8 989.3
00 20.06 ЮВ 1 20 км 9/0
[Ac As]
+12.0 +7.6 74 +12 +13 1015.9 990.6 +5.6
06 20.06 З 1 20 км 9/5 1000 м
[Sc Ac trans]
+22.2 +8.1 40 +23 +28 комфорт 1015.1 990.7
12 20.06 СЗ 1 20 км 8/3 1000 м
[Cu med, cong Ac trans Ci fib]
+21.0 +7.7 42 +23 +25 комфорт 1014.9 990.4 +23.1
15 20.06 ЮВ 1 20 км в посл. час гроза {ливн. осадки} 6/4 600 м
[Cb calv Ac trans]
+12.6 +10.9 89 +13 +13 1016.8 991.6
18 20.06 штиль 0 20 км {гроза, ливн. осадки} 8/3 1000 м
[Sc Ac trans Ci fib]
+9.8 +9.0 95 +9 +9 1017.2 991.7
21 20.06 штиль 0 20 км 8/3 1000 м
[Sc Ac trans Ci fib]
+8.2 +7.4 95 +7 +7 1017.3 991.6
00 21.06 штиль 0 20 км 9/3 1000 м
[Sc Ac trans Ci fib]
+11.2 +10.3 94 +10 +12 1017.3 991.9 +6.5 0.9
03 21.06 С 1 20 км 1/1 1000 м
[Cu hum]
+19.5 +10.0 54 +22 +33 комфорт 1016.4 991.8
06 21.06 З 1 20 км 4/4 1000 м
[Cu med, cong]
+23.4 +9.4 41 +25 +36 комфорт 1014.9 990.7
09 21.06 СЗ 1 20 км 8/8 1000 м
[Cu med, cong]
+24.6 +8.5 36 +25 +28 комфорт 1013.5 989.3
12 21.06 С 2 20 км 3/3 1000 м
[Cu hum]
+23.1 +7.2 36 +24 +26 комфорт 1013.0 988.7 +25.3
15 21.06 штиль 0 20 км ясно +14.9 +10.8 76 +15 +15 1013.1 988.2
18 21.06 Ю 1 20 км 1/0
[Ci fib]
+11.0 +9.8 92 +11 +11 1012.6 987.3
21 21.06 штиль 0 20 км 6/5 600 м
[Sc Ci fib]
+9.4 +8.5 94 +9 +9 1011.2 985.9
00 22.06 В 1 20 км 6/0
[Ci fib]
+14.6 +10.8 78 +15 +17 1010.0 985.1 +9.1
03 22.06 штиль 0 20 км 10/0
[Cs]
+22.4 +12.5 53 +25 +36 комфорт 1008.4 984.3
06 22.06 ЮЗ 4 20 км 9/3 1000 м
[Cu hum Ci fib]
+26.6 +8.5 32 +27 +33 жарко 1007.0 983.2
09 22.06 ЮЗ 1 20 км 8/8 600 м
[Cb calv]
+27.3 +8.9 31 +27 +30 жарко 1005.8 982.1
12 22.06 Ю 3 20 км 8/8 600 м
[Cb calv Ci fib]
+23.8 +11.3 45 +25 +26 комфорт 1005.8 981.8 +28.6
15 22.06 Ю 1 20 км {гроза} 10/0
[Ac As Cs]
+17.0 +11.2 69 +18 +18 1006.9 982.3
18 22.06 Ю 1 20 км {гроза} 8/1 1000 м
[Sc Cs]
+12.4 +10.8 90 +12 +12 1006.9 981.9
00 23.06 штиль 0 20 км 9/3 1000 м
[Sc Ac As]
+14.8 +12.6 87 +14 +15 1007.3 982.5 +11.4
06 23.06 З 1 20 км 8/4 600 м
[Cu med, cong Ac trans Ci fib]
+25.5 +11.2 41 +27 +34 жарко 1005.2 981.3
09 23.06 В 3
{12}
20 км гроза, ливневой дождь 9/6 600 м
[Cb calv Ac trans Ci ing]
+21.0 +12.1 57 +24 +26 комфорт 1004.8 980.6
12 23.06 З 4
{10}
20 км слаб. ливневой дождь, в посл. час гроза 10/10 630 м
[Cb calv]
+15.8 +14.4 91 +15 +15 1007.5 982.8 +26.1 3
15 23.06 З 1 10 км слаб. ливневой дождь 10/10 570 м
[Cb calv]
+14.2 +13.0 92 +14 +14 1008.9 984.1
00 24.06 ЮЗ 4 20 км 9/1 600 м
[Cb calv Ac As Ci fib]
+12.0 +8.1 77 +10 +11 1011.7 986.5 +11.3 4
12 24.06 СЗ 1 20 км 8/3 1000 м
[Cu hum Ac trans Ci fib]
+18.0 +4.5 41 +19 +21 1011.8 987.1 +19.6
00 25.06 штиль 0 20 км {ливн. осадки} 6/1 1000 м
[Sc Cs]
+7.6 +6.3 91 +7 +9 1014.0 988.4 +5.4 0.0
12 25.06 СЗ 1 20 км 10/3 1000 м
[Sc As op]
+18.3 +7.2 48 +20 +20 1014.5 989.8 +20.1

 

Местоположение метеостанции Тисуль (Кемеровская область, Россия): широта 55.75 долгота 88.30 высота над уровнем моря 211 м.

В архиве по умолчанию представлена погода в Тисуле за последнюю неделю. Архивные данные за месяц целиком и за предыдущие месяцы, начиная с января 2011 года, Вы можете получить, выбрав интересующий диапазон дат из раскрывающегося списка и нажав кнопку "Ввод!".


*Определитесь, кто Вы:
робот инопланетянин человек

Внимание! Время в таблицах - всемирное. Для получения местного времени необходимо прибавить поправку, которая равна 7 ч.

Смотрите также архив погоды в соседних городах и на ближайших метеорологических станциях:

Погода в Тяжине (Кемеровская область, Россия) (43 км)
Погода в Мариинске (Кемеровская область, Россия) (61 км)
Погода в Шарыпово (Красноярский край, Россия) (62 км)
Погода в Центральном Руднике (Кемеровская область, Россия) (74 км)
Погода в Боготоле (Красноярский край, Россия) (96 км)
Погода в Тюхтете (Красноярский край, Россия) (107 км)
Погода в Ужуре (Красноярский край, Россия) (108 км)
Погода в Ненастной (Хакасия, Россия) (116 км)
Погода в Яе (Кемеровская область, Россия) (124 км)
Погода в Крапивино (Кемеровская область, Россия) (125 км)

Пояснения к столбцам:

Ветер - указаны скорость ветра в м/с - средняя за 10 мин, порывы в срок и между сроками (в фигурных скобках) и направление, откуда дует ветер: С - северный, СВ - северо-восточный, В - восточный, ЮВ - юго-восточный, Ю - южный, ЮЗ - юго-западный, З - западный, СЗ - северо-западный.
Видимость - горизонтальная дальность видимости в метрах или километрах. При видимости от 1 до 10 км при отсутствии осадков обычно наблюдается дымка, при ухудшении видимости до 1 км и менее - туман. В сухую погоду видимость может ухудшаться дымом, пылью или мглою.
Явления - указаны атмосферные явления, наблюдавшиеся в срок или в последний час перед сроком; фигурными скобками обозначены явления, наблюдавшиеся между сроками (за 1-3 часа до срока); квадратными скобками обозначены град или гололедные отложения с указанием их диаметра в мм.
Облачность - указаны через наклонную черту общая и нижняя облачность в баллах и высота нижней границы облаков в метрах; квадратными скобками обозначены формы облаков: Ci - перистые, Cs - перисто-слоистые, Cc - перисто-кучевые, Ac - высококучевые, As - высокослоистые, Sc - слоисто-кучевые, Ns - слоисто-дождевые, Cu - кучевые, Cb - кучево-дождевые. Подробнее классификацию облаков см. в Атласе облаков (PDF).
T - Температура воздуха - температура, измеренная на высоте 2 м над землей.
Td - Температура точки росы - температура, при понижении до которой содержащийся в воздухе водяной пар достигнет насыщения.
f - Относительная влажность воздуха - влажноcть воздуха, измеренная на высоте 2 м над землей.
Te - Эффективная температура - температура, которую ощущает одетый по сезону человек в тени. Характеристика душности погоды. При расчете учитывается влияние влажности воздуха и скорости ветра на теплоощущения человека.
Tes - Эффективная температура на солнце - температура, которую ощущает человек, с поправкой на солнечный нагрев. Характеристика знойности погоды. Зависит от высоты солнца над горизонтом, облачности и скорости ветра. Ночью, в пасмурную погоду, а также при ветре 12 м/с и более поправка равна нулю.
P - Атмосферное давление - приведенное к уровню моря атмосферное давление.
Po - Атмосферное давление - измеренное на уровне метеостанции атмосферное давление.
Tmin - Минимальная температура - минимум температуры воздуха на высоте 2 м над землей.
Tmax - Максимальная температура - максимум температуры воздуха на высоте 2 м над землей.
R - Количество осадков - Количество выпавших осадков за период времени, мм. При наведении курсора мыши на число - период времени, за который выпало указанное количество осадков.
R24 - Количество осадков - Количество выпавших осадков за 24 часа, мм.
S - Снежный покров - Высота снежного покрова, см. При наведении курсора мыши на число - состояние снежного покрова и степень покрытия местности в баллах.